IBE24L LEVX-LEVC

Flight info

Callsign IBE24L
Flight time 1h 6m
Altitude 34000
Route BEDAL Z406 ZMR L155 NVS M871 MABUX
Aircraft A319/M-SDE3FGHIRWY/LB1

Departure

Time 2026-05-08 11:28
Airport Vigo Airport (LEVX)

Arrival

Time 2026-05-08 12:34
Airport Valencia Airport (LEVC)
Time Latitude Longitude Altitude Speed Heading
2026-05-08 11:04 42.22546 -8.63175 856 ft 0 kts 281°
2026-05-08 11:18 42.22545 -8.63165 860 ft 2 kts 281°
2026-05-08 11:19 42.22541 -8.63142 846 ft 2 kts 281°
2026-05-08 11:19 42.22539 -8.63124 849 ft 2 kts 281°
2026-05-08 11:19 42.22536 -8.63107 852 ft 2 kts 281°
2026-05-08 11:19 42.22532 -8.63089 849 ft 2 kts 311°
2026-05-08 11:20 42.22523 -8.63077 845 ft 2 kts 352°
2026-05-08 11:20 42.22519 -8.63076 845 ft 0 kts
2026-05-08 11:23 42.22522 -8.63075 860 ft 2 kts
2026-05-08 11:23 42.22540 -8.63072 854 ft 4 kts
2026-05-08 11:23 42.22571 -8.63065 857 ft 6 kts 11°
2026-05-08 11:23 42.22615 -8.63053 847 ft 7 kts 12°
2026-05-08 11:24 42.22664 -8.63025 850 ft 9 kts 41°
2026-05-08 11:24 42.22714 -8.62970 851 ft 10 kts 38°
2026-05-08 11:24 42.22776 -8.62904 847 ft 14 kts 38°
2026-05-08 11:24 42.22865 -8.62810 857 ft 19 kts 35°
2026-05-08 11:25 42.22994 -8.62730 851 ft 23 kts 11°
2026-05-08 11:25 42.23169 -8.62683 846 ft 28 kts 12°
2026-05-08 11:25 42.23376 -8.62625 846 ft 33 kts 11°
2026-05-08 11:25 42.23623 -8.62560 841 ft 39 kts 11°
2026-05-08 11:26 42.23888 -8.62491 841 ft 39 kts 11°
2026-05-08 11:26 42.24137 -8.62427 831 ft 22 kts 10°
2026-05-08 11:26 42.24237 -8.62432 838 ft 13 kts 51°
2026-05-08 11:26 42.24214 -8.62403 832 ft 4 kts 204°
2026-05-08 11:27 42.24202 -8.62406 837 ft 0 kts 188°
2026-05-08 11:27 42.24109 -8.62425 839 ft 48 kts 189°
2026-05-08 11:27 42.23528 -8.62582 843 ft 118 kts 191°
2026-05-08 11:27 42.22566 -8.62831 1072 ft 151 kts 189°
2026-05-08 11:28 42.21494 -8.63119 1660 ft 163 kts 190°
2026-05-08 11:28 42.20348 -8.63415 2262 ft 178 kts 191°
2026-05-08 11:28 42.19026 -8.63750 2546 ft 208 kts 192°
2026-05-08 11:28 42.17599 -8.64144 3471 ft 208 kts 192°
2026-05-08 11:29 42.16180 -8.64544 4536 ft 205 kts 192°
2026-05-08 11:29 42.14773 -8.64937 5460 ft 208 kts 192°
2026-05-08 11:29 42.13340 -8.65280 6377 ft 210 kts 182°
2026-05-08 11:29 42.11964 -8.64663 7314 ft 218 kts 140°
2026-05-08 11:30 42.11215 -8.62847 8346 ft 235 kts 103°
2026-05-08 11:30 42.11465 -8.60635 9148 ft 251 kts 66°
2026-05-08 11:30 42.12479 -8.58720 9996 ft 258 kts 50°
2026-05-08 11:30 42.13759 -8.56995 10791 ft 262 kts 45°
2026-05-08 11:31 42.15107 -8.55322 11697 ft 265 kts 44°
2026-05-08 11:31 42.16464 -8.53606 12567 ft 270 kts 45°
2026-05-08 11:31 42.17815 -8.51820 13451 ft 274 kts 46°
2026-05-08 11:31 42.19157 -8.49975 14266 ft 277 kts 48°
2026-05-08 11:32 42.20493 -8.48081 15039 ft 280 kts 49°
2026-05-08 11:32 42.21825 -8.46155 15791 ft 282 kts 50°
2026-05-08 11:32 42.23117 -8.44163 16529 ft 284 kts 59°
2026-05-08 11:32 42.23815 -8.41644 16734 ft 295 kts 90°
2026-05-08 11:33 42.23459 -8.38893 16942 ft 307 kts 118°
2026-05-08 11:33 42.22455 -8.36240 17109 ft 330 kts 117°
2026-05-08 11:33 42.21795 -8.33182 17241 ft 356 kts 103°
2026-05-08 11:33 42.21396 -8.29831 17774 ft 364 kts 101°
2026-05-08 11:34 42.21061 -8.26434 18456 ft 368 kts 100°
2026-05-08 11:34 42.20760 -8.22989 19066 ft 372 kts 100°
2026-05-08 11:34 42.20472 -8.19505 19660 ft 376 kts 99°
2026-05-08 11:34 42.20184 -8.15977 20241 ft 380 kts 99°
2026-05-08 11:35 42.19864 -8.12427 20820 ft 382 kts 103°
2026-05-08 11:35 42.19149 -8.08979 21397 ft 383 kts 112°
2026-05-08 11:35 42.18270 -8.05570 21973 ft 387 kts 112°
2026-05-08 11:35 42.17380 -8.02129 22518 ft 391 kts 112°
2026-05-08 11:36 42.16480 -7.98656 23049 ft 394 kts 112°
2026-05-08 11:36 42.15572 -7.95149 23542 ft 398 kts 112°
2026-05-08 11:36 42.14658 -7.91612 24004 ft 401 kts 112°
2026-05-08 11:36 42.13741 -7.88058 24315 ft 402 kts 112°
2026-05-08 11:37 42.12816 -7.84474 24385 ft 406 kts 112°
2026-05-08 11:37 42.11883 -7.80872 24388 ft 408 kts 112°
2026-05-08 11:37 42.10949 -7.77268 24387 ft 409 kts 112°
2026-05-08 11:37 42.10011 -7.73649 24440 ft 411 kts 112°
2026-05-08 11:38 42.09078 -7.70053 24928 ft 413 kts 112°
2026-05-08 11:38 42.08124 -7.66390 25424 ft 415 kts 112°
2026-05-08 11:38 42.07167 -7.62724 25924 ft 416 kts 112°
2026-05-08 11:38 42.06205 -7.59048 26394 ft 417 kts 112°
2026-05-08 11:39 42.05245 -7.55376 26948 ft 416 kts 112°
2026-05-08 11:39 42.04281 -7.51704 27432 ft 417 kts 113°
2026-05-08 11:39 42.03311 -7.48023 27888 ft 418 kts 113°
2026-05-08 11:39 42.02335 -7.44330 28325 ft 420 kts 113°
2026-05-08 11:40 42.01353 -7.40620 28734 ft 422 kts 113°
2026-05-08 11:40 42.00367 -7.36894 29143 ft 424 kts 113°
2026-05-08 11:40 41.99376 -7.33152 29541 ft 426 kts 113°
2026-05-08 11:40 41.98381 -7.29396 29945 ft 427 kts 113°
2026-05-08 11:41 41.97381 -7.25613 30259 ft 430 kts 113°
2026-05-08 11:41 41.96376 -7.21811 30485 ft 435 kts 113°
2026-05-08 11:41 41.95364 -7.18002 30633 ft 440 kts 113°
2026-05-08 11:41 41.94327 -7.14115 30919 ft 443 kts 113°
2026-05-08 11:42 41.93285 -7.10220 31272 ft 443 kts 113°
2026-05-08 11:42 41.92242 -7.06317 31609 ft 445 kts 113°
2026-05-08 11:42 41.91196 -7.02405 31958 ft 446 kts 113°
2026-05-08 11:42 41.90146 -6.98485 32308 ft 447 kts 113°
2026-05-08 11:43 41.89091 -6.94559 32664 ft 448 kts 113°
2026-05-08 11:43 41.88030 -6.90626 33004 ft 449 kts 113°
2026-05-08 11:43 41.86961 -6.86667 33364 ft 450 kts 113°
2026-05-08 11:43 41.85895 -6.82719 33709 ft 450 kts 113°
2026-05-08 11:44 41.84830 -6.78781 33899 ft 447 kts 113°
2026-05-08 11:44 41.82725 -6.70990 33926 ft 443 kts 113°
2026-05-08 11:45 41.80622 -6.63245 33927 ft 442 kts 114°
2026-05-08 11:45 41.78506 -6.55519 33918 ft 451 kts 114°
2026-05-08 11:46 41.76325 -6.47567 33928 ft 457 kts 114°
2026-05-08 11:46 41.74128 -6.39592 33929 ft 456 kts 114°
2026-05-08 11:47 41.71935 -6.31640 33937 ft 454 kts 114°
2026-05-08 11:47 41.69754 -6.23721 33940 ft 453 kts 114°
2026-05-08 11:48 41.67567 -6.15813 33935 ft 452 kts 114°
2026-05-08 11:48 41.65367 -6.07932 33918 ft 452 kts 114°
2026-05-08 11:49 41.63180 -6.00074 33941 ft 450 kts 114°
2026-05-08 11:49 41.60993 -5.92243 33911 ft 450 kts 114°
2026-05-08 11:50 41.58777 -5.84372 33895 ft 454 kts 114°
2026-05-08 11:50 41.56549 -5.76470 33900 ft 456 kts 114°
2026-05-08 11:51 41.54287 -5.68592 33885 ft 456 kts 118°
2026-05-08 11:51 41.50910 -5.61577 33902 ft 445 kts 136°
2026-05-08 11:52 41.46456 -5.55937 33905 ft 441 kts 141°
2026-05-08 11:52 41.41927 -5.50404 33898 ft 442 kts 142°
2026-05-08 11:53 41.37386 -5.44852 33891 ft 444 kts 142°
2026-05-08 11:53 41.32820 -5.39286 33894 ft 446 kts 142°
2026-05-08 11:54 41.28224 -5.33714 33892 ft 447 kts 142°
2026-05-08 11:54 41.23626 -5.28137 33892 ft 447 kts 142°
2026-05-08 11:55 41.19036 -5.22569 33883 ft 447 kts 143°
2026-05-08 11:55 41.14428 -5.17001 33882 ft 448 kts 143°
2026-05-08 11:56 41.09799 -5.11426 33891 ft 449 kts 143°
2026-05-08 11:56 41.05173 -5.05860 33885 ft 450 kts 143°
2026-05-08 11:57 41.00531 -5.00297 33885 ft 450 kts 143°
2026-05-08 11:57 40.95909 -4.94760 33865 ft 451 kts 143°
2026-05-08 11:58 40.91254 -4.89187 33877 ft 451 kts 144°
2026-05-08 11:58 40.86607 -4.83641 33896 ft 451 kts 144°
2026-05-08 11:59 40.79616 -4.75315 33896 ft 450 kts 144°
2026-05-08 11:59 40.74965 -4.69785 33913 ft 450 kts 144°
2026-05-08 12:00 40.70308 -4.64258 33915 ft 450 kts 144°
2026-05-08 12:00 40.65639 -4.58745 33919 ft 450 kts 144°
2026-05-08 12:01 40.60967 -4.53238 33928 ft 450 kts 144°
2026-05-08 12:01 40.56307 -4.47739 33939 ft 450 kts 144°
2026-05-08 12:02 40.51646 -4.42255 33940 ft 450 kts 144°
2026-05-08 12:02 40.46976 -4.36782 33955 ft 450 kts 144°
2026-05-08 12:03 40.42334 -4.31348 33954 ft 449 kts 144°
2026-05-08 12:03 40.38215 -4.25057 33948 ft 465 kts 126°
2026-05-08 12:04 40.35895 -4.17029 33950 ft 481 kts 105°
2026-05-08 12:04 40.34994 -4.09813 33956 ft 483 kts 104°
2026-05-08 12:05 40.33893 -4.01137 33960 ft 483 kts 104°
2026-05-08 12:05 40.32778 -3.92442 33963 ft 483 kts 104°
2026-05-08 12:06 40.31664 -3.83753 33956 ft 484 kts 104°
2026-05-08 12:06 40.30556 -3.75078 33951 ft 483 kts 104°
2026-05-08 12:07 40.29439 -3.66396 33954 ft 483 kts 104°
2026-05-08 12:07 40.28310 -3.57724 33956 ft 483 kts 104°
2026-05-08 12:08 40.27176 -3.49056 33957 ft 483 kts 104°
2026-05-08 12:08 40.26032 -3.40394 33931 ft 483 kts 105°
2026-05-08 12:09 40.24652 -3.31839 33946 ft 477 kts 111°
2026-05-08 12:09 40.22813 -3.23500 33952 ft 477 kts 111°
2026-05-08 12:10 40.20962 -3.15174 33936 ft 477 kts 111°
2026-05-08 12:10 40.19117 -3.06842 33938 ft 477 kts 111°
2026-05-08 12:11 40.17265 -2.98490 33947 ft 479 kts 112°
2026-05-08 12:11 40.15398 -2.90107 33951 ft 480 kts 112°
2026-05-08 12:12 40.13536 -2.81794 33952 ft 480 kts 112°
2026-05-08 12:12 40.11648 -2.73384 33954 ft 480 kts 112°
2026-05-08 12:13 40.09759 -2.65030 33940 ft 479 kts 112°
2026-05-08 12:13 40.07877 -2.56724 33956 ft 480 kts 112°
2026-05-08 12:14 40.05977 -2.48374 33957 ft 480 kts 112°
2026-05-08 12:14 40.04067 -2.40015 33966 ft 480 kts 112°
2026-05-08 12:15 40.03108 -2.35834 33727 ft 481 kts 112°
2026-05-08 12:15 40.02149 -2.31651 33453 ft 481 kts 112°
2026-05-08 12:15 40.01189 -2.27455 32810 ft 483 kts 112°
2026-05-08 12:15 40.00215 -2.23227 31468 ft 493 kts 112°
2026-05-08 12:16 39.99213 -2.18900 30278 ft 500 kts 112°
2026-05-08 12:16 39.98200 -2.14525 28964 ft 507 kts 112°
2026-05-08 12:16 39.97196 -2.10163 28461 ft 495 kts 112°
2026-05-08 12:16 39.96219 -2.05891 27717 ft 489 kts 112°
2026-05-08 12:17 39.95249 -2.01670 27002 ft 483 kts 112°
2026-05-08 12:17 39.94278 -1.97488 26298 ft 479 kts 112°
2026-05-08 12:17 39.93313 -1.93358 25605 ft 474 kts 112°
2026-05-08 12:17 39.92354 -1.89273 24896 ft 470 kts 112°
2026-05-08 12:18 39.91399 -1.85214 24237 ft 465 kts 112°
2026-05-08 12:18 39.90455 -1.81202 23569 ft 462 kts 112°
2026-05-08 12:18 39.89518 -1.77223 22865 ft 457 kts 112°
2026-05-08 12:18 39.88595 -1.73298 22259 ft 450 kts 112°
2026-05-08 12:19 39.87683 -1.69430 21680 ft 444 kts 112°
2026-05-08 12:19 39.86778 -1.65606 21140 ft 440 kts 112°
2026-05-08 12:19 39.85882 -1.61822 20599 ft 436 kts 112°
2026-05-08 12:19 39.84994 -1.58071 20087 ft 432 kts 112°
2026-05-08 12:20 39.84112 -1.54357 19562 ft 429 kts 112°
2026-05-08 12:20 39.83230 -1.50661 19037 ft 426 kts 112°
2026-05-08 12:20 39.82363 -1.47034 18529 ft 423 kts 112°
2026-05-08 12:20 39.81491 -1.43381 17926 ft 422 kts 112°
2026-05-08 12:21 39.80624 -1.39752 17363 ft 418 kts 112°
2026-05-08 12:21 39.79763 -1.36156 16796 ft 415 kts 111°
2026-05-08 12:21 39.78680 -1.32681 16218 ft 404 kts 123°
2026-05-08 12:21 39.77136 -1.29741 15675 ft 393 kts 135°
2026-05-08 12:22 39.75185 -1.27336 15103 ft 383 kts 147°
2026-05-08 12:22 39.72950 -1.25544 14550 ft 373 kts 159°
2026-05-08 12:22 39.70596 -1.24154 14005 ft 369 kts 160°
2026-05-08 12:22 39.68264 -1.22789 13417 ft 366 kts 159°
2026-05-08 12:23 39.65956 -1.21437 12863 ft 361 kts 159°
2026-05-08 12:23 39.63680 -1.20106 12307 ft 357 kts 159°
2026-05-08 12:23 39.61433 -1.18790 11740 ft 352 kts 159°
2026-05-08 12:23 39.59216 -1.17488 11198 ft 348 kts 157°
2026-05-08 12:24 39.57188 -1.15796 10658 ft 348 kts 141°
2026-05-08 12:24 39.55647 -1.13443 10497 ft 337 kts 124°
2026-05-08 12:24 39.54684 -1.10748 10376 ft 326 kts 109°
2026-05-08 12:24 39.54278 -1.07910 10255 ft 315 kts 99°
2026-05-08 12:25 39.54024 -1.05141 10114 ft 304 kts 99°
2026-05-08 12:25 39.53777 -1.02468 9996 ft 294 kts 99°
2026-05-08 12:25 39.53533 -0.99883 9879 ft 284 kts 99°
2026-05-08 12:25 39.53293 -0.97378 9747 ft 275 kts 99°
2026-05-08 12:26 39.53061 -0.94960 9612 ft 266 kts 99°
2026-05-08 12:26 39.52839 -0.92634 9499 ft 255 kts 99°
2026-05-08 12:26 39.52897 -0.90385 9355 ft 246 kts 78°
2026-05-08 12:26 39.53541 -0.88397 9167 ft 235 kts 58°
2026-05-08 12:27 39.54620 -0.86854 8639 ft 236 kts 38°
2026-05-08 12:27 39.56070 -0.85865 8071 ft 235 kts 18°
2026-05-08 12:27 39.57630 -0.85278 7533 ft 232 kts 17°
2026-05-08 12:27 39.59142 -0.84543 7004 ft 231 kts 29°
2026-05-08 12:28 39.60358 -0.83234 6454 ft 227 kts 54°
2026-05-08 12:28 39.61096 -0.81452 5927 ft 224 kts 70°
2026-05-08 12:28 39.61574 -0.79560 5452 ft 218 kts 86°
2026-05-08 12:28 39.61430 -0.77676 5094 ft 208 kts 111°
2026-05-08 12:29 39.60698 -0.76090 4801 ft 202 kts 135°
2026-05-08 12:29 39.59674 -0.74895 4511 ft 200 kts 140°
2026-05-08 12:29 39.58674 -0.73654 4221 ft 199 kts 129°
2026-05-08 12:29 39.57996 -0.72093 3958 ft 198 kts 118°
2026-05-08 12:30 39.57397 -0.70505 3695 ft 195 kts 116°
2026-05-08 12:30 39.56808 -0.68941 3442 ft 191 kts 117°
2026-05-08 12:30 39.56220 -0.67383 3189 ft 189 kts 116°
2026-05-08 12:30 39.55643 -0.65857 2935 ft 188 kts 116°
2026-05-08 12:31 39.55077 -0.64362 2692 ft 186 kts 116°
2026-05-08 12:31 39.54508 -0.62858 2440 ft 185 kts 116°
2026-05-08 12:31 39.53944 -0.61369 2192 ft 182 kts 116°
2026-05-08 12:31 39.53406 -0.59948 1964 ft 170 kts 116°
2026-05-08 12:32 39.52896 -0.58603 1740 ft 162 kts 116°
2026-05-08 12:32 39.52421 -0.57352 1538 ft 146 kts 116°
2026-05-08 12:32 39.51995 -0.56228 1340 ft 133 kts 116°
2026-05-08 12:32 39.51593 -0.55169 1168 ft 128 kts 116°
2026-05-08 12:33 39.51204 -0.54146 997 ft 127 kts 116°
2026-05-08 12:33 39.50819 -0.53124 858 ft 126 kts 115°
2026-05-08 12:33 39.50435 -0.52106 651 ft 126 kts 116°
2026-05-08 12:33 39.50049 -0.51089 457 ft 126 kts 116°
2026-05-08 12:34 39.49663 -0.50069 288 ft 125 kts 116°
2026-05-08 12:34 39.49303 -0.49121 226 ft 101 kts 116°
2026-05-08 12:34 39.49062 -0.48503 211 ft 57 kts 116°
2026-05-08 12:34 39.48972 -0.48242 207 ft 23 kts 99°
2026-05-08 12:35 39.48984 -0.48094 204 ft 9 kts 77°
2026-05-08 12:35 39.48997 -0.48015 208 ft 10 kts 77°
2026-05-08 12:35 39.49013 -0.47920 203 ft 12 kts 77°
2026-05-08 12:35 39.49033 -0.47805 202 ft 11 kts 77°
2026-05-08 12:36 39.49051 -0.47699 207 ft 10 kts 77°
2026-05-08 12:36 39.49058 -0.47608 198 ft 9 kts 85°
2026-05-08 12:36 39.49091 -0.47517 195 ft 13 kts 64°
2026-05-08 12:36 39.49102 -0.47487 200 ft 0 kts 64°